Time,TemperatureF,DewpointF,PressureIn,WindDirection,WindDirectionDegrees,WindSpeedMPH,WindSpeedGustMPH,Humidity,HourlyPrecipIn,Conditions,Clouds,dailyrainin,SoftwareType,DateUTC
2013-04-27 00:53:00,75.0,-99.9,30.19,ENE,70,13.0,14.0,-999,-99.99,,,-99.99,,2013-04-27 04:53:00,
2013-04-27 01:52:00,75.0,-99.9,30.19,ENE,70,11.0,14.0,-999,-99.99,,,-99.99,,2013-04-27 05:52:00,
2013-04-27 02:52:00,74.0,-99.9,30.18,ENE,60,11.0,14.0,-999,-99.99,,,-99.99,,2013-04-27 06:52:00,
2013-04-27 03:52:00,74.0,-99.9,30.16,ENE,60,11.0,14.0,-999,-99.99,,,-99.99,,2013-04-27 07:52:00,
2013-04-27 04:52:00,74.0,-99.9,30.14,East,80,14.0,15.0,-999,-99.99,,,-99.99,,2013-04-27 08:52:00,
2013-04-27 05:53:00,74.0,-99.9,30.13,East,80,14.0,16.0,-999,-99.99,,,-99.99,,2013-04-27 09:53:00,
2013-04-27 06:53:00,74.0,-99.9,30.12,East,90,14.0,16.0,-999,-99.99,,,-99.99,,2013-04-27 10:53:00,
2013-04-27 07:52:00,74.0,-99.9,30.14,ENE,70,14.0,15.0,-999,-99.99,,,-99.99,,2013-04-27 11:52:00,
2013-04-27 08:52:00,74.0,-99.9,30.15,ENE,70,15.0,17.0,-999,-99.99,,,-99.99,,2013-04-27 12:52:00,
2013-04-27 09:52:00,74.0,-99.9,30.15,East,80,15.0,17.0,-999,-99.99,,,-99.99,,2013-04-27 13:52:00,
2013-04-27 10:52:00,76.0,-99.9,30.15,East,90,18.0,21.0,-999,-99.99,,,-99.99,,2013-04-27 14:52:00,
2013-04-27 11:53:00,77.0,-99.9,30.16,East,100,17.0,20.0,-999,-99.99,,,-99.99,,2013-04-27 15:53:00,
2013-04-27 12:53:00,77.0,-99.9,30.16,ESE,120,17.0,22.0,-999,-99.99,,,-99.99,,2013-04-27 16:53:00,
2013-04-27 13:53:00,78.0,-99.9,30.15,ESE,110,20.0,23.0,-999,-99.99,,,-99.99,,2013-04-27 17:53:00,
2013-04-27 14:52:00,78.0,-99.9,30.14,ESE,120,16.0,20.0,-999,-99.99,,,-99.99,,2013-04-27 18:52:00,
2013-04-27 15:53:00,78.0,-99.9,30.12,ESE,110,16.0,20.0,-999,-99.99,,,-99.99,,2013-04-27 19:53:00,
2013-04-27 16:52:00,79.0,-99.9,30.10,ESE,120,15.0,17.0,-999,-99.99,,,-99.99,,2013-04-27 20:52:00,
2013-04-27 17:53:00,79.0,-99.9,30.08,ESE,110,16.0,18.0,-999,-99.99,,,-99.99,,2013-04-27 21:53:00,
2013-04-27 18:53:00,79.0,-99.9,30.06,ESE,110,20.0,22.0,-999,-99.99,,,-99.99,,2013-04-27 22:53:00,
2013-04-27 19:53:00,79.0,-99.9,30.06,East,100,18.0,22.0,-999,-99.99,,,-99.99,,2013-04-27 23:53:00,
2013-04-27 20:52:00,79.0,-99.9,30.07,East,100,18.0,22.0,-999,-99.99,,,-99.99,,2013-04-28 00:52:00,
2013-04-27 21:52:00,78.0,-99.9,30.09,ENE,70,15.0,18.0,-999,-99.99,,,-99.99,,2013-04-28 01:52:00,
2013-04-27 22:52:00,77.0,-99.9,30.10,ENE,60,15.0,17.0,-999,-99.99,,,-99.99,,2013-04-28 02:52:00,
2013-04-27 23:53:00,76.0,-99.9,30.11,ENE,70,14.0,16.0,-999,-99.99,,,-99.99,,2013-04-28 03:53:00,